Belize, Belize

7:30 PM CST on February 05, 2016 (GMT -0600)
Belize

Weather History for 78583 - November, 2012

Change the Weather History Date:

Saturday, November 17, 2012

  Actual Average Record
Temperature  
Mean Temperature 76 °F -  
Max Temperature 84 °F 83 °F - ()
Min Temperature 67 °F 70 °F - ()
Cooling Degree Days 10    
Growing Degree Days 26 (Base 50)    
Moisture  
Dew Point 68 °F    
Average Humidity 75    
Maximum Humidity 100    
Minimum Humidity 44    
Precipitation  
Precipitation 0.00 in 0.23 in - ()
Sea Level Pressure  
Sea Level Pressure 30.06 in    
Wind  
Wind Speed 5 mph ()    
Max Wind Speed 10 mph    
Max Gust Speed -    
Visibility 8.3 miles    
Events      
T = Trace of Precipitation, MM = Missing Value Source: Averaged Metar Reports

Daily Weather History Graph

Daily Weather History Graph

Search for Another Location

Airport or City:

Trip Planner

Search our weather history database for the weather conditions in past years. The results will help you decide how hot, cold, wet, or windy it might be!

Date:

Astronomy

Nov. 17, 2012 Rise Set
Actual Time 5:59 AM CST 5:16 PM CST
Civil Twilight 5:36 AM CST 5:39 PM CST
Nautical Twilight 5:10 AM CST 6:06 PM CST
Astronomical Twilight 4:44 AM CST 6:32 PM CST
Moon 9:43 AM CST (11/17) 9:23 PM CST (11/17)
Length of Visible Light 12h 02m
Length of Day
11h 16m
Waxing Crescent, 20% of the Moon is Illuminated
Nov 17
Waxing Crescent
Nov 20
First Quarter
Nov 28
Full
Dec 6
Last Quarter
Dec 13
New

Hourly Weather History & Observations

Time (CST) Temp. Heat Index Dew Point Humidity Pressure Visibility Wind Dir Wind Speed Gust Speed Precip Events Conditions
12:00 AM 71 °F - 70 °F 94% 30.05 in 12 mi WSW 3.5 mph - -   Clear
3:00 AM 71 °F - 69 °F 92% 30.04 in 12 mi NNW 4.6 mph - -   Mostly Cloudy
3:00 AM - - - N/A% - 6.2 mi NNW 9.2 mph - N/A   Scattered Clouds
5:00 AM 68.0 °F - 68.0 °F 100% 30.04 in - NW 4.6 mph - N/A   Clear
6:00 AM 68 °F - 67 °F 97% 30.08 in 12 mi WNW 4.6 mph - -   Scattered Clouds
6:00 AM 68.0 °F - 68.0 °F 100% 30.06 in 6.2 mi WNW 4.6 mph - N/A   Partly Cloudy
7:00 AM 69.8 °F - 68.0 °F 94% 30.09 in 6.2 mi NW 3.5 mph - N/A   Partly Cloudy
8:00 AM 71.6 °F - 68.0 °F 88% 30.09 in 6.2 mi WNW 4.6 mph - N/A   Partly Cloudy
9:00 AM 68 °F - - % 30.12 in 12 mi NW 8.1 mph - -   Scattered Clouds
9:00 AM 75.2 °F - 68.0 °F 78% 30.12 in 6.2 mi NW 8.1 mph - N/A   Partly Cloudy
10:00 AM 78.8 °F - 68.0 °F 69% 30.12 in 6.2 mi North 8.1 mph - N/A   Partly Cloudy
11:00 AM 80.6 °F 82.7 °F 66.2 °F 61% 30.10 in 6.2 mi NNW 5.8 mph - N/A   Partly Cloudy
12:00 PM 82 °F - 66 °F 50% 30.08 in 12 mi WNW 8.1 mph - -   Partly Cloudy
12:00 PM 82.4 °F 84.6 °F 66.2 °F 58% 30.07 in 6.2 mi WNW 8.1 mph - N/A   Scattered Clouds
1:00 PM 84.2 °F 85.0 °F 62.6 °F 48% 30.05 in 6.2 mi NW 10.4 mph - N/A   Scattered Clouds
2:00 PM 84.2 °F 86.6 °F 66.2 °F 55% 30.03 in 6.2 mi WNW 9.2 mph - N/A   Scattered Clouds
3:00 PM 83 °F - 65 °F 44% 30.02 in 16 mi NW 8.1 mph - -   Partly Cloudy
3:00 PM 82.4 °F 83.9 °F 64.4 °F 54% 30.01 in 6.2 mi NW 8.1 mph - N/A   Scattered Clouds
4:00 PM 82.4 °F 86.3 °F 69.8 °F 66% 30.01 in 6.2 mi ENE 4.6 mph - N/A   Scattered Clouds
5:00 PM 80.6 °F 83.9 °F 69.8 °F 70% 30.02 in 6.2 mi ENE 3.5 mph - N/A   Partly Cloudy
6:00 PM 75.2 °F - 71.6 °F 89% 30.04 in 6.2 mi Calm Calm - N/A   Partly Cloudy
9:00 PM 72 °F - 70 °F 90% 30.08 in 12 mi Calm Calm - -   Scattered Clouds